Total_Precipitation_Accumulation
3.41 3.34 3.31 3.32 3.25 3.46 3.74 3.88 3.78 3.65 3.50 3.31 3.05 3.01 3.16 3.27 3.40 3.45 3.56 3.64 3.45 3.70 4.37 4.86 4.92 4.99 5.00 4.94 4.78 4.68 4.52 4.51 4.32 3.92 3.42 3.11 3.00 2.90 2.85 2.78 2.72 2.64 2.58
3.75 3.74 3.79 3.75 3.54 3.57 3.78 4.02 3.98 3.85 3.57 3.40 3.22 3.16 3.19 3.18 3.29 3.50 3.53 3.61 3.54 3.58 4.08 4.65 5.07 5.33 5.39 5.42 5.21 4.89 4.60 4.44 4.34 4.16 3.87 3.47 3.27 3.18 3.20 2.98 2.84 2.67 2.56
4.08 4.11 4.29 4.28 4.00 3.97 4.10 4.25 4.28 4.16 3.75 3.45 3.42 3.46 3.43 3.41 3.26 3.28 3.46 3.56 3.48 3.63 3.92 4.13 4.55 4.94 5.28 5.39 5.49 5.27 4.91 4.56 4.34 4.21 4.16 3.92 3.62 3.51 3.55 3.30 3.14 2.95 2.68
4.13 4.34 4.33 4.17 4.17 4.32 4.55 4.75 4.68 4.62 4.41 4.18 4.01 3.71 3.46 3.33 3.20 3.35 3.34 3.35 3.64 3.58 3.67 3.60 3.87 4.30 4.73 5.07 5.36 5.45 5.22 4.83 4.48 4.23 4.16 4.03 3.77 3.53 3.48 3.51 3.43 3.29 3.03
4.22 4.54 4.65 4.64 4.56 4.67 4.80 4.56 4.72 4.68 4.85 4.70 4.17 3.89 3.59 3.38 3.30 3.29 3.39 3.36 3.45 3.58 3.55 3.43 3.58 3.86 4.11 4.53 4.86 5.27 5.43 5.17 4.82 4.47 4.32 4.23 3.98 3.72 3.50 3.49 3.51 3.40 3.24
4.55 4.82 4.82 4.88 4.96 5.16 5.10 5.00 5.03 4.83 4.71 4.66 4.21 4.01 3.76 3.41 3.34 3.28 3.19 3.20 3.21 3.04 3.13 3.20 3.38 3.32 3.62 3.99 4.34 4.84 5.46 5.61 5.40 5.04 4.81 4.71 4.36 3.88 3.53 3.42 3.43 3.40 3.36
5.13 5.29 5.36 5.34 5.18 5.18 5.13 5.03 5.01 4.93 4.62 4.45 4.54 4.16 3.66 3.16 2.90 2.81 2.82 2.92 2.84 2.75 2.86 3.16 3.37 3.26 3.16 3.40 3.81 4.40 5.25 5.83 5.83 5.54 5.23 5.01 4.53 3.98 3.65 3.49 3.42 3.35 3.26
5.85 5.72 5.80 5.50 5.20 5.16 5.09 4.99 4.90 4.77 4.35 4.22 4.33 4.40 3.84 3.35 2.77 2.39 2.45 2.48 2.53 2.62 2.68 2.65 2.91 2.97 2.86 2.97 2.93 3.42 4.03 4.78 5.35 5.52 5.38 5.03 4.65 4.20 3.86 3.64 3.57 3.56 3.41
5.93 5.75 5.54 5.43 5.28 5.09 4.94 4.94 4.86 4.77 4.49 4.25 4.17 4.45 4.24 3.70 3.09 2.72 2.43 2.38 2.44 2.53 2.48 2.43 2.52 2.58 2.61 2.71 2.74 2.91 3.23 3.67 4.45 5.00 5.16 4.88 4.51 4.14 3.92 3.84 3.84 3.92 3.88
5.56 5.21 5.05 5.19 5.14 4.89 4.66 4.34 4.26 4.32 4.34 4.15 4.02 3.81 3.74 3.64 3.48 3.16 2.77 2.67 2.66 2.63 2.50 2.40 2.49 2.66 2.71 2.82 2.81 2.70 2.70 2.83 3.36 4.04 4.64 4.65 4.41 4.12 3.97 4.06 4.17 4.30 4.32
4.89 4.65 4.64 4.82 4.79 4.54 4.30 4.01 3.89 3.73 3.69 3.82 3.85 3.71 3.57 3.42 3.19 3.13 3.00 2.81 2.70 2.58 2.43 2.38 2.49 2.60 2.64 2.65 2.63 2.50 2.49 2.48 2.73 3.11 3.68 4.17 4.29 4.29 4.25 4.30 4.38 4.43 4.47
4.31 4.00 3.87 3.86 3.85 3.70 3.55 3.51 3.52 3.45 3.41 3.52 3.56 3.46 3.37 3.30 3.19 3.21 3.08 2.84 2.78 2.74 2.59 2.40 2.28 2.27 2.32 2.47 2.45 2.59 2.43 2.38 2.47 2.64 2.80 3.14 3.52 3.83 4.10 4.25 4.23 4.34 4.48
3.64 3.32 3.19 3.14 3.18 3.19 3.10 3.13 3.22 3.22 3.17 3.26 3.21 3.14 3.08 2.92 2.95 3.14 3.28 3.11 2.99 2.82 2.74 2.55 2.31 2.37 2.28 2.37 2.56 2.64 2.45 2.33 2.35 2.38 2.32 2.39 2.71 3.09 3.28 3.54 3.76 3.90 4.11
2.98 2.90 2.85 2.70 2.70 2.78 2.77 2.96 2.92 2.84 2.84 2.87 2.77 2.91 2.92 2.75 2.81 2.96 3.18 3.50 3.56 3.22 2.87 2.61 2.39 2.36 2.41 2.36 2.49 2.54 2.23 2.11 2.07 2.14 2.18 2.15 2.22 2.42 2.61 2.73 2.92 3.13 3.37
2.54 2.52 2.49 2.44 2.35 2.32 2.35 2.40 2.40 2.46 2.55 2.48 2.48 2.54 2.51 2.53 2.64 2.74 2.99 3.41 3.73 3.57 3.16 2.81 2.66 2.51 2.43 2.42 2.58 2.28 2.10 2.05 1.91 1.87 1.88 1.87 1.91 2.04 2.19 2.22 2.22 2.33 2.49
2.25 2.24 2.15 2.12 2.13 2.16 2.14 2.10 2.09 2.17 2.24 2.25 2.33 2.31 2.25 2.26 2.43 2.52 2.64 2.84 3.15 3.45 3.21 2.61 2.49 2.37 2.37 2.20 2.47 2.22 2.15 2.13 1.82 1.63 1.58 1.60 1.66 1.74 1.81 1.88 1.91 1.95 2.04
2.06 1.99 1.98 1.99 1.93 1.92 1.98 2.04 2.04 2.11 2.20 2.17 2.09 2.10 2.14 2.29 2.40 2.37 2.42 2.55 2.73 3.01 3.16 2.79 2.54 2.40 2.37 2.40 2.42 2.27 2.12 1.98 1.75 1.63 1.44 1.40 1.43 1.53 1.55 1.59 1.67 1.75 1.79
1.94 1.94 1.94 1.90 1.77 1.72 1.89 1.97 1.97 1.97 2.08 2.04 2.00 2.08 2.09 2.14 2.21 2.26 2.36 2.47 2.65 2.89 3.01 3.03 2.78 2.50 2.38 2.36 2.43 2.35 2.04 1.84 1.72 1.73 1.52 1.38 1.30 1.29 1.40 1.41 1.44 1.55 1.67
1.89 1.86 1.76 1.75 1.70 1.68 1.79 1.82 1.85 1.85 1.87 1.92 1.94 2.01 2.00 2.07 2.09 2.16 2.22 2.29 2.44 2.55 2.76 2.81 2.68 2.53 2.39 2.28 2.46 2.28 2.12 2.24 1.81 1.66 1.53 1.40 1.30 1.26 1.49 1.55 1.36 1.36 1.44
1.80 1.78 1.71 1.65 1.65 1.68 1.62 1.58 1.62 1.72 1.79 1.74 1.67 1.76 1.82 1.88 1.93 2.07 2.03 2.11 2.24 2.42 2.61 2.67 2.48 2.31 2.24 2.27 2.42 2.40 2.32 2.24 2.04 1.64 1.60 1.48 1.37 1.35 1.67 2.19 1.69 1.39 1.37
1.58 1.67 1.60 1.53 1.55 1.50 1.38 1.40 1.45 1.46 1.58 1.57 1.52 1.54 1.57 1.62 1.63 1.66 1.61 1.83 2.07 2.27 2.41 2.50 2.39 2.27 2.21 2.35 2.32 2.24 2.23 2.20 2.03 1.82 1.80 1.61 1.70 1.94 2.41 3.00 2.50 1.87 1.64
1.64 1.65 1.61 1.53 1.45 1.33 1.30 1.24 1.24 1.29 1.40 1.53 1.60 1.57 1.45 1.39 1.33 1.25 1.29 1.44 1.69 1.97 2.23 2.37 2.31 2.27 2.24 2.30 2.38 2.35 2.32 2.36 2.28 1.91 1.86 1.77 1.94 2.70 3.32 3.57 3.12 2.26 1.92
1.83 1.67 1.56 1.53 1.45 1.34 1.27 1.08 1.03 1.10 1.31 1.47 1.60 1.64 1.36 1.19 1.29 1.25 1.30 1.31 1.39 1.53 1.82 2.13 2.26 2.19 2.23 2.31 2.50 2.56 2.50 2.47 2.38 2.10 2.13 2.06 2.20 2.99 3.16 3.27 3.15 2.33 1.99
1.79 1.74 1.62 1.56 1.47 1.23 1.10 0.94 0.97 1.03 1.19 1.21 1.25 1.37 1.41 1.38 1.27 1.33 1.36 1.43 1.46 1.54 1.61 1.74 2.00 2.01 2.00 2.19 2.42 2.47 2.48 2.42 2.33 2.16 2.18 2.28 2.40 2.89 2.79 2.83 2.86 2.31 1.99
1.74 1.62 1.52 1.46 1.38 1.23 1.13 1.02 1.03 1.07 1.16 1.09 1.01 1.05 1.11 1.16 1.17 1.24 1.36 1.57 1.62 1.72 1.67 1.82 1.83 1.78 1.82 1.91 1.95 2.10 2.41 2.63 2.51 2.16 2.01 2.16 2.31 2.64 2.69 2.67 2.48 2.28 2.06
1.64 1.44 1.36 1.38 1.31 1.28 1.15 0.97 0.92 0.92 1.06 1.10 1.13 1.16 1.08 0.96 1.02 1.13 1.36 1.66 1.82 1.86 1.90 2.00 1.97 1.92 1.81 1.80 1.79 1.91 2.33 2.66 2.65 2.38 2.00 2.04 2.17 2.42 2.69 2.57 2.32 2.14 2.12